This is the latest recevied weather packets stored in our database for station/object OK2ILA-1. If no packets are shown the sender has not sent any weather packets the latest 10 day(s).
| Time | Temp. | Humidity | Pressure | Rain* | Wind** | Luminosity | Snow |
|---|---|---|---|---|---|---|---|
| 1777484990 | 6.67° C | 100% | 1028.7 hPa | 0 mm | - | - | - |
| 1777484270 | 7.22° C | 100% | 1028.6 hPa | 0 mm | - | - | - |
| 1777483549 | 7.22° C | 100% | 1028.5 hPa | 0 mm | - | - | - |
| 1777482828 | 7.78° C | 100% | 1028.3 hPa | 0 mm | - | - | - |
| 1777482590 | 7.78° C | 100% | 1028.3 hPa | 0 mm | - | - | - |
| 1777482108 | 7.78° C | 100% | 1028.2 hPa | 0 mm | - | - | - |
| 1777481387 | 8.33° C | 100% | 1028.1 hPa | 0 mm | - | - | - |
| 1777480666 | 8.33° C | 100% | 1028 hPa | 0 mm | - | - | - |
| 1777479946 | 8.33° C | 100% | 1027.8 hPa | 0 mm | - | - | - |
| 1777479225 | 8.33° C | 100% | 1027.9 hPa | 0 mm | - | - | - |
| 1777478504 | 8.89° C | 100% | 1027.8 hPa | 0 mm | - | - | - |
| 1777477783 | 8.89° C | 100% | 1027.7 hPa | 0 mm | - | - | - |
| 1777477063 | 9.44° C | 100% | 1027.6 hPa | 0 mm | - | - | - |
| 1777476825 | 8.89° C | 100% | 1027.7 hPa | 0 mm | - | - | - |
| 1777476342 | 8.89° C | 100% | 1027.7 hPa | 0 mm | - | - | - |
| 1777475621 | 10° C | 100% | 1027.6 hPa | 0 mm | - | - | - |
| 1777474901 | 10° C | 100% | 1027.6 hPa | 0 mm | - | - | - |
| 1777474180 | 10° C | 100% | 1027.4 hPa | 0 mm | - | - | - |
| 1777473460 | 10° C | 100% | 1027.4 hPa | 0 mm | - | - | - |
| 1777472739 | 10° C | 100% | 1027.4 hPa | 0 mm | - | - | - |
| 1777472018 | 10° C | 100% | 1027.4 hPa | 0 mm | - | - | - |
| 1777471297 | 10° C | 100% | 1027.4 hPa | 0 mm | - | - | - |
| 1777470577 | 10.56° C | 100% | 1027.3 hPa | 0 mm | - | - | - |
| 1777469856 | 10° C | 100% | 1027.2 hPa | 0 mm | - | - | - |
| 1777469135 | 10° C | 100% | 1027.1 hPa | 0 mm | - | - | - |
* Rain latest hour (hover to see other rain measurements)
** Current wind speed in m/s (hover to see current wind gust speed)